Tracking 22881 objects as of 19-Apr-2021
HD Live streaming from Space Station
objects crossing your sky now

INTASAT

Track INTASAT now!
10-day predictions
INTASAT is classified as:


NORAD ID: 7531
Int'l Code: 1974-089C
Perigee: 1,448.1 km
Apogee: 1,466.1 km
Inclination: 101.8 °
Period: 114.9 minutes
Semi major axis: 7828 km
RCS: 0.5293 m2 (medium)
Launch date: November 15, 1974
Source: Spain (SPN)
Launch site: AIR FORCE WESTERN TEST RANGE (AFWTR)
aabbcc
Your satellite tracking list
Your tracking list is empty




NASA's NSSDC Master Catalog

Two Line Element Set (TLE):
1 07531U 74089C   21108.87197053 -.00000058  00000-0 -80143-4 0  9991
2 07531 101.8482  83.2171 0011484 144.9242 269.6253 12.53481041124052
Source of the keplerian elements: AFSPC